Погода в Белом Яре

Россия / Омская область     57°35′18″N   72°23′04″E
темп.,
°C
ветер,
м/с
пор.,
м/с
влажн.,
%
обл.,
%
осадки,
мм/ч
давл.,
гПа
погр.,
м
21 января, чт
чт2100:00−21вюв51196100 1.4 1016616
03:00−20юв41196100 0.4 1013552
06:00−19юв41095100 0.7 1012474
09:00−19ююв3897100 0.2 1010345
12:00−17юз4992100 0.3 1010600
15:00−17юз4891100 0.1 1010696
18:00−19ююз3796100 0.1 1010261
21:00−20юз2698100 0.1 1010257
22 января, пт
пт2200:00−21юз2499100 0.2 1010128
03:00−22юз2598100 0.1 1009170
06:00−24зюз259997 0.1 1010105
09:00−27юз259992 0.0 1011128
12:00−25зюз259794 0.1 1012234
15:00−23з2496100 0.0 1013283
18:00−27з229997 0.0 101619
21:00−28зсз229998 0.0 101821
23 января, сб
сб2300:00−31сз229784 0.0 102120
03:00−33сз22970 0.0 102429
06:00−35сз23976 0.0 102645
09:00−37сз239616 0.0 103052
12:00−35сз249411 0.0 1031229
15:00−34сз249233 0.0 1033314
18:00−37сз239533 0.0 103458
21:00−39сз22954 0.0 103740
24 января, вс
вс2400:00−40зсз22968 0.0 103718
03:00−41зсз129731 0.0 103918
06:00−41зсз129739 0.0 104018
09:00−42зсз119739 0.0 104118
12:00−38юз019338 0.0 1041115
15:00−35ю018949 0.0 1041227
18:00−38юв229539 0.0 104118
21:00−37юв249684 0.0 104183
25 января, пн
пн2500:00−36юв259692 0.0 1040165
03:00−34вюв3694100 0.0 1039240
06:00−33вюв3794100 0.0 1037271
09:00−32вюв3897100 0.4 1036284
12:00−30вюв3695100 0.6 1035296
15:00−29вюв3595100 0.0 1035304
18:00−31вюв2598100 0.0 1036123
21:00−29вюв2596100 0.0 1037250